Location: Doschendorf
(50.0069°N, 11.0602°E)
Time: 14:33:15
(UTC+00:00)

Meteor 1-20 Rocket - Pass Details

Date: 17 November 2019
Orbit: 820 x 891 km, 81.2° (Epoch: 04 December)

Event Time Altitude Azimuth Distance (km) Brightness Sun altitude
Rises 17:42:27 0° 349° (N) 3,515 7.5 -21.1°
Reaches altitude 10° 17:44:58 10° 354° (N) 2,572 6.7 -21.5°
Maximum altitude 17:50:47 60° 74° (ENE) 1,015 4.2 -22.4°
Enters shadow 17:53:31 31° 142° (SE) 1,508 5.2 -22.9°
